| time (UTC) | temp F | wind direction | speed MPH | gust MPH | rain 1hr in | rain 24hr in | rain mn in | humidity % | barometer mb |
| 20260510191531 | 72 | 13 | 6.0 | 11.0 | 0.00 | 0.00 | 0.00 | 48 | 1018.4 |
| 20260510190035 | 71 | 24 | 5.0 | 11.0 | 0.00 | 0.00 | 0.00 | 48 | 1018.5 |
| 20260510184648 | 71 | 24 | 5.0 | 10.0 | 0.00 | 0.00 | 0.00 | 48 | 1018.5 |
| 20260510181544 | 68 | 10 | 5.0 | 8.0 | 0.00 | 0.00 | 0.00 | 52 | 1018.4 |
| 20260510180036 | 66 | 30 | 3.0 | 6.0 | 0.00 | 0.00 | 0.00 | 53 | 1018.6 |
| 20260510174532 | 65 | 9 | 3.0 | 7.0 | 0.00 | 0.00 | 0.00 | 55 | 1018.6 |
| 20260510173033 | 64 | 5 | 2.0 | 6.0 | 0.00 | 0.00 | 0.00 | 55 | 1018.7 |
| 20260510170107 | 63 | 346 | 2.0 | 4.0 | 0.00 | 0.00 | 0.00 | 56 | 1018.7 |
| 20260510164532 | 63 | 8 | 1.0 | 4.0 | 0.00 | 0.00 | 0.00 | 57 | 1018.7 |
| 20260510163036 | 61 | 48 | 1.0 | 4.0 | 0.00 | 0.00 | 0.00 | 58 | 1018.7 |
| 20260510161534 | 60 | 40 | 0.0 | 3.0 | 0.00 | 0.00 | 0.00 | 60 | 1018.8 |
| 20260510160035 | 59 | 30 | 0.0 | 2.0 | 0.00 | 0.00 | 0.00 | 62 | 1018.6 |
| 20260510154538 | 59 | 158 | 0.0 | 1.0 | 0.00 | 0.00 | 0.00 | 62 | 1018.6 |
| 20260510153141 | 58 | 246 | 0.0 | 0.0 | 0.00 | 0.00 | 0.00 | 63 | 1018.6 |
| 20260510151529 | 57 | 247 | 0.0 | 2.0 | 0.00 | 0.00 | 0.00 | 62 | 1018.7 |
| 20260510150110 | 55 | 262 | 1.0 | 3.0 | 0.00 | 0.00 | 0.00 | 63 | 1018.5 |
| 20260510144609 | 53 | 225 | 2.0 | 3.0 | 0.00 | 0.00 | 0.00 | 64 | 1018.4 |
| 20260510141537 | 51 | 135 | 0.0 | 2.0 | 0.00 | 0.00 | 0.00 | 64 | 1018.3 |
| 20260510140028 | 51 | 203 | 0.0 | 2.0 | 0.00 | 0.00 | 0.00 | 63 | 1018.5 |
| 20260510134608 | 49 | 264 | 2.0 | 3.0 | 0.00 | 0.00 | 0.00 | 62 | 1018.3 |
| 20260510131529 | 49 | 208 | 0.0 | 3.0 | 0.00 | 0.00 | 0.00 | 62 | 1018.3 |
| 20260510124749 | 0 | 0 | 0.0 | 0.0 | 0.00 | 0.00 | 0.00 | 100 | |
| 20260510123032 | 47 | 205 | 0.0 | 2.0 | 0.00 | 0.00 | 0.00 | 63 | 1018.3 |
| 20260510121607 | 47 | 220 | 1.0 | 4.0 | 0.00 | 0.00 | 0.00 | 63 | 1018.2 |
| 20260510120032 | 48 | 247 | 0.0 | 0.0 | 0.00 | 0.00 | 0.00 | 61 | 1018.3 |
| 20260510114534 | 49 | 247 | 0.0 | 0.0 | 0.00 | 0.00 | 0.00 | 58 | 1018.2 |
| 20260510111531 | 50 | 158 | 4.0 | 5.0 | 0.00 | 0.00 | 0.00 | 59 | 1018.2 |
| 20260510110032 | 49 | 160 | 4.0 | 6.0 | 0.00 | 0.00 | 0.00 | 60 | 1018.4 |
| 20260510104533 | 49 | 161 | 0.0 | 2.0 | 0.00 | 0.00 | 0.00 | 61 | 1018.3 |
| 20260510103029 | 49 | 162 | 2.0 | 3.0 | 0.00 | 0.00 | 0.00 | 60 | 1018.3 |
| 20260510100032 | 49 | 199 | 0.0 | 1.0 | 0.00 | 0.00 | 0.00 | 59 | 1018.2 |
| 20260510094532 | 50 | 172 | 2.0 | 4.0 | 0.00 | 0.00 | 0.00 | 58 | 1018.3 |
| 20260510083030 | 53 | 183 | 2.0 | 4.0 | 0.00 | 0.00 | 0.00 | 54 | 1019.0 |
| 20260510081532 | 52 | 172 | 3.0 | 5.0 | 0.00 | 0.00 | 0.00 | 54 | 1019.0 |
| 20260510080034 | 51 | 165 | 2.0 | 4.0 | 0.00 | 0.00 | 0.00 | 55 | 1019.0 |
| 20260510073035 | 54 | 161 | 2.0 | 4.0 | 0.00 | 0.00 | 0.00 | 53 | 1019.0 |
| 20260510070035 | 53 | 162 | 2.0 | 4.0 | 0.00 | 0.00 | 0.00 | 53 | 1019.0 |
| 20260510064650 | 53 | 184 | 0.0 | 4.0 | 0.00 | 0.00 | 0.00 | 52 | 1019.0 |
| 20260510063037 | 53 | 165 | 3.0 | 7.0 | 0.00 | 0.00 | 0.00 | 52 | 1019.0 |
| 20260510061607 | 53 | 216 | 2.0 | 6.0 | 0.00 | 0.00 | 0.00 | 51 | 1018.9 |
| 20260510051535 | 59 | 220 | 1.0 | 3.0 | 0.00 | 0.00 | 0.00 | 42 | 1018.7 |
| 20260510044530 | 61 | 176 | 1.0 | 4.0 | 0.00 | 0.00 | 0.00 | 40 | 1018.8 |
| 20260510043032 | 61 | 232 | 2.0 | 4.0 | 0.00 | 0.00 | 0.00 | 39 | 1018.8 |
| 20260510041530 | 62 | 247 | 3.0 | 5.0 | 0.00 | 0.00 | 0.00 | 38 | 1018.7 |
| 20260510040040 | 63 | 241 | 3.0 | 5.0 | 0.00 | 0.00 | 0.00 | 37 | 1018.4 |
| 20260510034529 | 64 | 124 | 0.0 | 2.0 | 0.00 | 0.00 | 0.00 | 37 | 1018.3 |
| 20260510031534 | 65 | 250 | 3.0 | 5.0 | 0.00 | 0.00 | 0.00 | 37 | 1018.3 |
| 20260510030031 | 65 | 259 | 2.0 | 4.0 | 0.00 | 0.00 | 0.00 | 38 | 1018.2 |
| 20260510024532 | 66 | 348 | 0.0 | 3.0 | 0.00 | 0.00 | 0.00 | 37 | 1018.2 |
| 20260510021535 | 69 | 13 | 3.0 | 5.0 | 0.00 | 0.00 | 0.00 | 35 | 1018.2 |
| 20260510014531 | 72 | 359 | 4.0 | 7.0 | 0.00 | 0.00 | 0.00 | 32 | 1018.3 |
| 20260510013030 | 72 | 350 | 5.0 | 9.0 | 0.00 | 0.00 | 0.00 | 32 | 1018.4 |
| 20260510011608 | 73 | 6 | 6.0 | 11.0 | 0.00 | 0.00 | 0.00 | 32 | 1018.4 |
| 20260510004535 | 74 | 8 | 5.0 | 11.0 | 0.00 | 0.00 | 0.00 | 32 | 1018.5 |
| 20260510003036 | 74 | 358 | 6.0 | 13.0 | 0.00 | 0.00 | 0.00 | 32 | 1018.5 |
| 20260510000034 | 75 | 3 | 6.0 | 11.0 | 0.00 | 0.00 | 0.00 | 33 | 1018.9 |
| 20260509234609 | 76 | 12 | 6.0 | 14.0 | 0.00 | 0.00 | 0.00 | 33 | 1019.0 |
| 20260509233035 | 76 | 14 | 6.0 | 13.0 | 0.00 | 0.00 | 0.00 | 33 | 1019.1 |
| 20260509231530 | 76 | 23 | 7.0 | 15.0 | 0.00 | 0.00 | 0.00 | 34 | 1019.3 |
| 20260509230033 | 76 | 9 | 5.0 | 11.0 | 0.00 | 0.00 | 0.00 | 34 | 1019.6 |
| 20260509224531 | 75 | 6 | 5.0 | 12.0 | 0.00 | 0.00 | 0.00 | 34 | 1019.7 |
| 20260509221536 | 75 | 11 | 5.0 | 13.0 | 0.00 | 0.00 | 0.00 | 36 | 1020.2 |
| 20260509220036 | 75 | 29 | 5.0 | 12.0 | 0.00 | 0.00 | 0.00 | 37 | 1020.4 |
| 20260509214534 | 74 | 27 | 5.0 | 12.0 | 0.00 | 0.00 | 0.00 | 37 | 1020.5 |
| 20260509211533 | 74 | 19 | 6.0 | 12.0 | 0.00 | 0.00 | 0.00 | 39 | 1021.0 |
| 20260509210032 | 73 | 35 | 4.0 | 11.0 | 0.00 | 0.00 | 0.00 | 40 | 1021.2 |
| 20260509204607 | 0 | 0 | 0.0 | 0.0 | 0.00 | 0.00 | 0.00 | 100 | |
| 20260509203036 | 74 | 359 | 5.0 | 10.0 | 0.00 | 0.00 | 0.00 | 41 | 1021.5 |
| 20260509201608 | 74 | 5 | 5.0 | 11.0 | 0.00 | 0.00 | 0.00 | 42 | 1021.7 |
| 20260509200035 | 73 | 23 | 6.0 | 12.0 | 0.00 | 0.00 | 0.00 | 43 | 1021.9 |
| 20260509194528 | 72 | 31 | 5.0 | 9.0 | 0.00 | 0.00 | 0.00 | 43 | 1022.1 |
| 20260509193036 | 72 | 21 | 6.0 | 12.0 | 0.00 | 0.00 | 0.00 | 43 | 1022.3 |